Location: *
(45.9500°N, 9.0833°E)
Time: 18:35:59
(UTC+00:00)

Cosmos 1943 Rocket - Pass Details

Date: 03 March 2021
Orbit: 811 x 844 km, 71.0° (Epoch: 15 April)

Event Time Altitude Azimuth Distance (km) Brightness Sun altitude
Rises 20:43:58 0° 338° (NNW) 3,414 6.0 -36.0°
Reaches altitude 10° 20:46:40 10° 348° (NNW) 2,475 5.1 -36.4°
Enters shadow 20:48:31 19° 1° (N) 1,907 4.3 -36.6°
